Current Conditions
Mostly Scattered
Clouds



Pressure
1012.22 (mb) - 29.89 (inHG)
Visibility

10.0 (mimiles) - 16.1 (km)
   Temperature
77  °F
25°C
77  °F
Dewpoint
100  %
 Humidity
   Wind Speed
0  mph
0  kts
0  km/h
0  m/s
   Wind Direction
Calm
Due North
   Airport Data
KBHC
Location Baxley Municipal 5 mi (8.05 km)
Metar :KBHC 100135Z AUTO 00000KT 10SM SCT050 25/25 A2989 RMK AO2
Thu 9th July 20:35 pm
   Raw Metar Info
Raw METAR is the most common format in the world for the transmission of observational weather data. It is highly standardized through the International Civil Aviation Organization (ICAO), which allows it to be understood throughout most of the world.
   API Info
Data Provided by
https://www.checkwx.com/weather/KBHC
   © Info
CSS/SVG/PHP scripts were developed by weather34.com for use in the weather34 template © 2015-2020

Guide Info provided by Metar-Wikipedia